| time (UTC) | temp C | wind direction | speed KPH | gust KPH | rain 1hr cm | rain 24hr cm | rain mn cm | humidity % | barometer mb |
| 20260505170057 | 20 | 219 | 12.9 | 25.7 | 0.00 | 0.00 | 0.00 | 63 | 1011.3 |
| 20260505164551 | 20 | 215 | 8.0 | 19.3 | 0.00 | 0.00 | 0.00 | 65 | 1011.9 |
| 20260505163052 | 20 | 178 | 11.3 | 29.0 | 0.00 | 0.00 | 0.00 | 65 | 1012.1 |
| 20260505161553 | 20 | 189 | 11.3 | 20.9 | 0.00 | 0.00 | 0.00 | 64 | 1012.0 |
| 20260505153103 | 19 | 208 | 11.3 | 19.3 | 0.00 | 0.00 | 0.00 | 64 | 1012.1 |
| 20260505151551 | 19 | 179 | 11.3 | 22.5 | 0.00 | 0.00 | 0.00 | 67 | 1012.1 |
| 20260505124554 | 16 | 174 | 6.4 | 12.9 | 0.00 | 0.00 | 0.00 | 71 | 1011.5 |
| 20260505123100 | 16 | 162 | 4.8 | 9.7 | 0.00 | 0.00 | 0.00 | 72 | 1011.5 |
| 20260505121553 | 15 | 168 | 3.2 | 9.7 | 0.00 | 0.00 | 0.00 | 72 | 1011.6 |
| 20260505120101 | 15 | 175 | 1.6 | 6.4 | 0.00 | 0.00 | 0.00 | 73 | 1011.5 |
| 20260505114552 | 14 | 178 | 1.6 | 6.4 | 0.00 | 0.00 | 0.00 | 74 | 1011.4 |
| 20260505113054 | 13 | 0 | 1.6 | 9.7 | 0.00 | 0.00 | 0.00 | 75 | 1011.1 |
| 20260505111555 | 13 | 192 | 3.2 | 8.0 | 0.00 | 0.00 | 0.00 | 76 | 1011.0 |
| 20260505101553 | 13 | 175 | 3.2 | 6.4 | 0.00 | 0.00 | 0.00 | 74 | 1010.6 |
| 20260505100058 | 13 | 173 | 3.2 | 11.3 | 0.00 | 0.00 | 0.00 | 73 | 1010.6 |
| 20260505094558 | 14 | 183 | 3.2 | 8.0 | 0.00 | 0.00 | 0.00 | 72 | 1010.6 |
| 20260505093052 | 14 | 173 | 3.2 | 11.3 | 0.00 | 0.00 | 0.00 | 72 | 1010.2 |
| 20260505091616 | 15 | 169 | 3.2 | 11.3 | 0.00 | 0.00 | 0.00 | 71 | 1010.2 |
| 20260505090123 | 15 | 184 | 3.2 | 8.0 | 0.00 | 0.00 | 0.00 | 71 | 1010.1 |
| 20260505084612 | 15 | 178 | 1.6 | 9.7 | 0.00 | 0.00 | 0.00 | 69 | 1010.3 |
| 20260505083106 | 15 | 200 | 3.2 | 11.3 | 0.00 | 0.00 | 0.00 | 68 | 1010.3 |
| 20260505081559 | 15 | 166 | 4.8 | 11.3 | 0.00 | 0.00 | 0.00 | 68 | 1010.0 |
| 20260505080059 | 16 | 202 | 4.8 | 16.1 | 0.00 | 0.00 | 0.00 | 66 | 1009.8 |
| 20260505074554 | 16 | 191 | 4.8 | 11.3 | 0.00 | 0.00 | 0.00 | 65 | 1009.8 |
| 20260505073059 | 17 | 182 | 6.4 | 14.5 | 0.00 | 0.00 | 0.00 | 63 | 1009.6 |
| 20260505071610 | 17 | 200 | 6.4 | 19.3 | 0.00 | 0.00 | 0.00 | 63 | 1009.6 |
| 20260505070055 | 17 | 199 | 6.4 | 16.1 | 0.00 | 0.00 | 0.00 | 63 | 1009.5 |
| 20260505064550 | 17 | 209 | 8.0 | 16.1 | 0.00 | 0.00 | 0.00 | 62 | 1009.6 |
| 20260505063055 | 17 | 182 | 6.4 | 19.3 | 0.00 | 0.00 | 0.00 | 62 | 1009.7 |
| 20260505061557 | 17 | 211 | 6.4 | 14.5 | 0.00 | 0.00 | 0.00 | 61 | 1010.0 |
| 20260505054552 | 17 | 168 | 4.8 | 11.3 | 0.00 | 0.00 | 0.00 | 64 | 1010.0 |
| 20260505053053 | 17 | 184 | 3.2 | 9.7 | 0.00 | 0.00 | 0.00 | 62 | 1010.2 |
| 20260505051553 | 18 | 163 | 4.8 | 12.9 | 0.00 | 0.00 | 0.00 | 60 | 1010.2 |
| 20260505041555 | 19 | 197 | 6.4 | 14.5 | 0.00 | 0.00 | 0.00 | 57 | 1009.6 |
| 20260505040050 | 19 | 208 | 8.0 | 19.3 | 0.00 | 0.00 | 0.00 | 57 | 1009.6 |
| 20260505034549 | 19 | 219 | 6.4 | 16.1 | 0.00 | 0.00 | 0.00 | 56 | 1009.4 |
| 20260505033048 | 20 | 202 | 9.7 | 17.7 | 0.00 | 0.00 | 0.00 | 55 | 1009.4 |
| 20260505031551 | 20 | 200 | 8.0 | 17.7 | 0.00 | 0.00 | 0.00 | 55 | 1009.2 |
| 20260505030109 | 20 | 201 | 8.0 | 17.7 | 0.00 | 0.00 | 0.00 | 54 | 1009.0 |
| 20260505024553 | 20 | 207 | 11.3 | 24.1 | 0.00 | 0.00 | 0.00 | 53 | 1008.8 |
| 20260505023055 | 20 | 155 | 6.4 | 16.1 | 0.00 | 0.00 | 0.00 | 54 | 1008.5 |
| 20260505021554 | 20 | 222 | 9.7 | 22.5 | 0.00 | 0.00 | 0.00 | 53 | 1008.4 |
| 20260505020100 | 20 | 153 | 11.3 | 22.5 | 0.00 | 0.00 | 0.00 | 52 | 1008.1 |
| 20260505014607 | 21 | 205 | 9.7 | 22.5 | 0.00 | 0.00 | 0.00 | 49 | 1008.0 |
| 20260505013056 | 21 | 192 | 8.0 | 22.5 | 0.00 | 0.00 | 0.00 | 49 | 1008.0 |
| 20260505011555 | 21 | 211 | 11.3 | 20.9 | 0.00 | 0.00 | 0.00 | 49 | 1008.1 |
| 20260505010058 | 22 | 177 | 9.7 | 19.3 | 0.00 | 0.00 | 0.00 | 48 | 1008.3 |
| 20260505004555 | 21 | 184 | 9.7 | 19.3 | 0.00 | 0.00 | 0.00 | 50 | 1008.4 |
| 20260505003058 | 22 | 202 | 8.0 | 17.7 | 0.00 | 0.00 | 0.00 | 50 | 1008.3 |
| 20260505001549 | 22 | 189 | 6.4 | 12.9 | 0.00 | 0.00 | 0.00 | 50 | 1008.5 |
| 20260505000058 | 23 | 201 | 4.8 | 12.9 | 0.00 | 0.00 | 0.00 | 48 | 1008.8 |
| 20260504234551 | 23 | 171 | 9.7 | 22.5 | 0.00 | 0.00 | 0.00 | 46 | 1009.0 |
| 20260504233051 | 23 | 213 | 9.7 | 20.9 | 0.00 | 0.00 | 0.00 | 46 | 1009.0 |
| 20260504231552 | 24 | 200 | 8.0 | 19.3 | 0.00 | 0.00 | 0.00 | 45 | 1009.1 |
| 20260504230053 | 25 | 215 | 11.3 | 25.7 | 0.00 | 0.00 | 0.00 | 43 | 1009.2 |
| 20260504224555 | 24 | 217 | 11.3 | 24.1 | 0.00 | 0.00 | 0.00 | 44 | 1009.4 |
| 20260504223104 | 24 | 209 | 14.5 | 35.4 | 0.00 | 0.00 | 0.00 | 44 | 1009.4 |
| 20260504221551 | 24 | 201 | 9.7 | 24.1 | 0.00 | 0.00 | 0.00 | 46 | 1009.4 |
| 20260504220050 | 25 | 188 | 6.4 | 22.5 | 0.00 | 0.00 | 0.00 | 48 | 1009.5 |
| 20260504214551 | 24 | 211 | 9.7 | 14.5 | 0.00 | 0.00 | 0.00 | 46 | 1009.3 |
| 20260504213050 | 24 | 247 | 8.0 | 20.9 | 0.00 | 0.00 | 0.00 | 44 | 1009.4 |
| 20260504211634 | 24 | 213 | 6.4 | 27.4 | 0.00 | 0.00 | 0.00 | 48 | 1009.3 |
| 20260504210055 | 25 | 211 | 14.5 | 25.7 | 0.00 | 0.00 | 0.00 | 44 | 1009.3 |
| 20260504204551 | 24 | 202 | 9.7 | 32.2 | 0.00 | 0.00 | 0.00 | 46 | 1009.3 |
| 20260504203053 | 24 | 221 | 14.5 | 27.4 | 0.00 | 0.00 | 0.00 | 45 | 1009.4 |
| 20260504201604 | 25 | 223 | 9.7 | 25.7 | 0.00 | 0.00 | 0.00 | 46 | 1009.6 |
| 20260504200059 | 25 | 169 | 14.5 | 27.4 | 0.00 | 0.00 | 0.00 | 47 | 1010.1 |
| 20260504194556 | 25 | 207 | 16.1 | 30.6 | 0.00 | 0.00 | 0.00 | 47 | 1010.3 |
| 20260504193105 | 25 | 207 | 11.3 | 25.7 | 0.00 | 0.00 | 0.00 | 48 | 1010.5 |
| 20260504191609 | 24 | 167 | 12.9 | 22.5 | 0.00 | 0.00 | 0.00 | 49 | 1010.7 |
| 20260504190107 | 24 | 223 | 14.5 | 27.4 | 0.00 | 0.00 | 0.00 | 53 | 1010.9 |
| 20260504184553 | 24 | 196 | 9.7 | 20.9 | 0.00 | 0.00 | 0.00 | 52 | 1011.0 |
| 20260504183052 | 23 | 202 | 14.5 | 27.4 | 0.00 | 0.00 | 0.00 | 50 | 1011.0 |
| 20260504181559 | 23 | 192 | 11.3 | 24.1 | 0.00 | 0.00 | 0.00 | 54 | 1011.2 |
| 20260504180053 | 23 | 208 | 11.3 | 27.4 | 0.00 | 0.00 | 0.00 | 55 | 1011.2 |
| 20260504174552 | 22 | 200 | 14.5 | 32.2 | 0.00 | 0.00 | 0.00 | 53 | 1011.6 |
| 20260504173055 | 22 | 190 | 12.9 | 24.1 | 0.00 | 0.00 | 0.00 | 57 | 1011.7 |
| 20260504171554 | 21 | 130 | 12.9 | 24.1 | 0.00 | 0.00 | 0.00 | 57 | 1011.7 |